Location: ??????????
(54.4061°N, 22.6114°E)
Time: 14:19:52
(UTC+00:00)

Timation 2 Rocket - Pass Details

Date: 23 October 2019
Orbit: 908 x 1074 km, 70.0° (Epoch: 17 November)

Event Time Altitude Azimuth Distance (km) Brightness Sun altitude
Rises 17:45:42 0° 323° (NW) 3,555 7.7 -22.6°
Reaches altitude 10° 17:48:20 10° 330° (NNW) 2,605 6.8 -23.0°
Maximum altitude 17:54:05 46° 43° (NE) 1,215 4.3 -23.8°
Enters shadow 17:54:42 44° 60° (ENE) 1,240 4.2 -23.9°
